Regional Weather Roundup
Issued by NWS Northern Indiana

Home | Current Version | Previous Version | Graphics & Text | Print | Product List | Glossary On
Versions: 1 2 3 4 5 6 7 8 9 10 11 12 13 14 15 16 17 18 19 20 21 22 23 24 25 26 27 28 29 30 31 32 33 34 35 36 37 38 39 40 41 42 43 44 45 46 47 48 49 50
000
ASUS43 KIWX 312310
RWRIWX

KIWX WEATHER ROUNDUP
NATIONAL WEATHER SERVICE NORTHERN INDIANA
700 PM EDT WED AUG 31 2016

NOTE: "FAIR" INDICATES FEW OR NO CLOUDS BELOW 12,000 FEET WITH NO
SIGNIFICANT WEATHER AND/OR OBSTRUCTIONS TO VISIBILITY.

* THESE STATIONS ARE NOT UNDER NWS QUALITY CONTROL. THEY ALSO MAY NOT
  REPORT WEATHER SUCH AS PRECIPITATION OR FOG.

INZ001>027-010000-
NORTHERN INDIANA

CITY           SKY/WX    TMP DP  RH WIND       PRES   REMARKS
GARY*          PTSUNNY   73  63  68 N15G29    30.07S
VALPARAISO     MOSUNNY   71  59  65 N8G18     30.06R
MICHIGAN CITY* MOSUNNY   70  61  73 CALM      30.05F
LAPORTE*       MOSUNNY   72  61  69 N16       30.05S
KNOX*          MOSUNNY   70  37  30 N10G18    30.03S
SOUTH BEND     CLOUDY    72  60  66 N16       30.03S
ELKHART*       SUNNY    N/A N/A N/A NW15      30.01S
GOSHEN         CLOUDY    74  62  66 N8        30.00S
MONTICELLO*    CLOUDY    73  57  57 N12G17    30.01S
LOGANSPORT*    CLOUDY    72  59  64 N12G17    30.01S
ROCHESTER*     CLOUDY    75  61  60 N10       30.01S
WARSAW*        MOSUNNY   73  68  83 NW7       30.00S
ANGOLA*        MOSUNNY   73  66  78 N8        30.00R
FORT WAYNE     PTSUNNY   75  68  78 N9        29.98S
HUNTINGTON*    PTSUNNY   71  70  96 N6        29.98S
PERU/GRISSOM   PTSUNNY   74  64  71 N13       29.98S
MARION*        CLOUDY    74  67  76 N7        29.99S

$$
INZ028>050-010000-
CENTRAL INDIANA

CITY           SKY/WX    TMP DP  RH WIND       PRES   REMARKS
LAFAYETTE      CLOUDY    73  62  68 N12G20    30.01R
KOKOMO*        CLOUDY    73  68  83 N10       29.99R
MUNCIE*        CLOUDY    74  70  87 SW3       29.98S
INDIANAPOLIS   CLOUDY    80  68  66 N15       29.97R

$$
MIZ043>046-050>051-056>058-064>065-071>073-077>080-010000-
SOUTHWEST LOWER MICHIGAN

CITY           SKY/WX    TMP DP  RH WIND       PRES   REMARKS
BATTLE CREEK   MOSUNNY   73  57  57 N9        30.03R
BENTON HARBOR  SUNNY     73  60  63 VRB5      30.03F
COLDWATER*     CLOUDY    74  60  62 N8        30.01S
HILLSDALE*     CLOUDY    73  60  64 N6        30.01R
HOLLAND        SUNNY     76  57  51 N8        30.04S
GRAND RAPIDS   MOSUNNY   75  55  49 N14       30.03S
KALAMAZOO      MOSUNNY   74  56  53 N9        30.02R
STURGIS*       MOSUNNY   74  62  66 N5        30.00R
THREE RIVERS*  PTSUNNY   76  62  61 N6        30.02R

$$
OHZ001>008-015>018-024>025-010000-
NORTHWEST OHIO

CITY           SKY/WX    TMP DP  RH WIND       PRES   REMARKS
WAUSEON*       FAIR      75  66  73 N10G16    29.98R
DEFIANCE       CLOUDY    76  65  68 N10       29.97R
FINDLAY        CLOUDY    78  65  63 NE13      29.94R
TOLEDO EXPRESS CLOUDY    75  65  70 N12       29.97R
TOLEDO METCALF CLOUDY    77  70  79 NE7       29.97R
LIMA           PTSUNNY   77  71  82 NW6       29.95S

$$
AND FOR LAKE MICHIGAN COASTAL AND OPEN LAKE BUOY OBSERVATIONS

STATION/POSITION TEMP    WIND        PRES    VSBY  WAVE
                 AIR SEA DIR/SP/G                  HT/PER
                 (F)     (DEG/KT/KT) (MB)    (MI)  (FT/S)
CALUMET HARBOR    71                   N/A
MICHIGAN CITY     70     350/ 21/ 23   N/A
BURNS HARBOR      71     360/ 18/ 22 1017.9S
SAINT JOSEPH      70      10/ 15/ 21 1017.9
SOUTH LAKE BUOY   71 74   10/ 21/ 27 1017.1S         6/ 6
4 MI NW BRIDGMAN  69 62  350/ 16/ 21 1016.7F         6/ 6
MICHIGAN CITY     71 65  360/ 17/ 23   N/A           7/ 6

$$
&&




USA.gov is the U.S. government's official web portal to all federal, state and local government web resources and services.